Cleveland, OH

10:46 AM EST on February 24, 2017 (GMT -0500)
Cleveland-Hopkins International

Weather History for KCLE - December, 2013

Change the Weather History Date:

Tuesday, December 31, 2013

  Actual Average Record
Temperature  
Mean Temperature 21 °F 29 °F  
Max Temperature 24 °F 35 °F 68 °F (1875)
Min Temperature 18 °F 23 °F -11 °F (1976)
Degree Days  
Heating Degree Days 44 36  
Month to date heating degree days 1014 1011  
Since 1 July heating degree days 2163 2107  
Cooling Degree Days 0 0  
Month to date cooling degree days 0 0  
Year to date cooling degree days 889 817  
Moisture  
Dew Point 13 °F    
Average Humidity 69    
Maximum Humidity 81    
Minimum Humidity 56    
Precipitation  
Precipitation 0.13 in 0.10 in 0.63 in (1978)
Month to date precipitation 4.10 3.10  
Year to date precipitation 41.85 39.14  
Snow  
Snow 2.40 in 0.60 in - ()
Month to date snowfall 17.1 14.1  
Since 1 July snowfall 21.8 18.6  
Snow Depth 2.00 in    
Sea Level Pressure  
Sea Level Pressure 30.21 in    
Wind  
Wind Speed 14 mph (WSW)    
Max Wind Speed 28 mph    
Max Gust Speed 33 mph    
Visibility 5 miles    
Events Snow    
T = Trace of Precipitation, MM = Missing Value Source: NWS Daily Summary

Daily Weather History Graph

Daily Weather History Graph

Search for Another Location

Airport or City:

Trip Planner

Search our weather history database for the weather conditions in past years. The results will help you decide how hot, cold, wet, or windy it might be!

Date:

Astronomy

Dec. 31, 2013 Rise Set
Actual Time 7:53 AM EST 5:07 PM EST
Civil Twilight 7:22 AM EST 5:39 PM EST
Nautical Twilight 6:47 AM EST 6:13 PM EST
Astronomical Twilight 6:13 AM EST 6:47 PM EST
Moon 6:44 AM EST (12/31) 4:43 PM EST (12/31)
Length of Visible Light 10h 16m
Length of Day
9h 14m
Waning Crescent, 1% of the Moon is Illuminated
Dec 31
Waning Crescent
Jan 1
New
Jan 7
First Quarter
Jan 15
Full
Jan 24
Last Quarter

Hourly Weather History & Observations

Time (EST) Temp. Windchill Dew Point Humidity Pressure Visibility Wind Dir Wind Speed Gust Speed Precip Events Conditions
12:51 AM 23.0 °F 14.7 °F 15.1 °F 72% 30.15 in 10.0 mi South 6.9 mph - N/A   Overcast
1:31 AM 23.0 °F 13.9 °F 16.0 °F 74% 30.11 in 9.0 mi SSW 8.1 mph - 0.00 in Snow Light Snow
1:51 AM 23.0 °F 15.8 °F 16.0 °F 74% 30.14 in 9.0 mi SW 5.8 mph - 0.00 in Snow Light Snow
2:30 AM 23.0 °F 13.1 °F 17.1 °F 78% 30.11 in 2.5 mi SW 9.2 mph - 0.00 in Snow Light Snow
2:43 AM 23.0 °F 13.9 °F 17.1 °F 78% 30.11 in 2.5 mi WSW 8.1 mph - 0.01 in Snow Light Snow
2:51 AM 23.0 °F 13.9 °F 17.1 °F 78% 30.14 in 2.5 mi WSW 8.1 mph - 0.01 in Snow Light Snow
3:12 AM 23.0 °F 13.9 °F 17.1 °F 78% 30.10 in 2.5 mi SW 8.1 mph - 0.00 in Snow Light Snow
3:31 AM 23.0 °F 13.1 °F 17.1 °F 78% 30.10 in 3.0 mi SW 9.2 mph - 0.00 in Snow Light Snow
3:39 AM 23.0 °F 13.1 °F 17.1 °F 78% 30.10 in 3.0 mi SW 9.2 mph - 0.00 in Snow Light Snow
3:46 AM 23.0 °F 12.4 °F 17.6 °F 80% 30.10 in 2.5 mi SW 10.4 mph - N/A Snow Light Snow
3:51 AM 23.0 °F 11.7 °F 17.1 °F 78% 30.13 in 2.5 mi SW 11.5 mph - 0.00 in Snow Light Snow
4:28 AM 21.9 °F 9.8 °F 16.0 °F 78% 30.07 in 3.0 mi SW 12.7 mph - 0.00 in Snow Light Snow
4:48 AM 21.2 °F 8.3 °F 15.8 °F 80% 30.07 in 2.5 mi WSW 13.8 mph - 0.00 in Snow Light Snow
4:51 AM 21.9 °F 9.2 °F 16.0 °F 78% 30.11 in 2.0 mi WSW 13.8 mph - 0.00 in Snow Light Snow
4:57 AM 21.9 °F 9.2 °F 16.0 °F 78% 30.07 in 1.8 mi WSW 13.8 mph - 0.00 in Snow Light Snow
5:51 AM 21.0 °F 8.1 °F 16.0 °F 81% 30.12 in 1.5 mi WSW 13.8 mph 19.6 mph 0.02 in Snow Light Snow
6:00 AM 21.0 °F 7.6 °F 15.1 °F 78% 30.08 in 2.0 mi WSW 15.0 mph - 0.00 in Snow Light Snow
6:09 AM 21.0 °F 6.6 °F 14.0 °F 74% 30.08 in 3.0 mi WSW 17.3 mph 23.0 mph 0.00 in Snow Light Snow
6:15 AM 21.0 °F 6.2 °F 14.0 °F 74% 30.08 in 3.0 mi WSW 18.4 mph - 0.00 in Snow Light Snow
6:40 AM 21.0 °F 8.1 °F 15.1 °F 78% 30.09 in 2.5 mi WSW 13.8 mph - 0.00 in Snow Light Snow
6:51 AM 21.0 °F 8.1 °F 15.1 °F 78% 30.13 in 2.5 mi WSW 13.8 mph - 0.00 in Snow Light Snow
6:55 AM 21.0 °F 8.6 °F 15.1 °F 78% 30.09 in 2.5 mi WSW 12.7 mph - 0.00 in Snow Light Snow
7:07 AM 21.0 °F 7.6 °F 16.0 °F 81% 30.10 in 1.0 mi WSW 15.0 mph - 0.00 in Snow Light Snow
7:14 AM 19.9 °F 3.9 °F 14.0 °F 78% 30.10 in 2.5 mi WSW 20.7 mph 26.5 mph 0.00 in Snow Light Snow
7:51 AM 19.0 °F 3.2 °F 10.9 °F 71% 30.16 in 4.0 mi West 19.6 mph - 0.00 in Snow Light Snow
8:51 AM 18.0 °F 2.2 °F 10.0 °F 71% 30.19 in 10.0 mi West 18.4 mph - 0.00 in   Overcast
9:34 AM 18.0 °F 2.2 °F 9.0 °F 68% 30.19 in 10.0 mi West 18.4 mph 26.5 mph N/A   Overcast
9:51 AM 18.0 °F 0.2 °F 9.0 °F 68% 30.24 in 8.0 mi WSW 24.2 mph - N/A   Overcast
10:51 AM 19.0 °F 1.6 °F 9.0 °F 65% 30.27 in 7.0 mi West 24.2 mph 29.9 mph 0.00 in Snow Light Snow
11:51 AM 19.0 °F 0.6 °F 7.0 °F 59% 30.29 in 7.0 mi WSW 27.6 mph 33.4 mph 0.00 in Snow Light Snow
12:51 PM 19.0 °F 2.7 °F 8.1 °F 62% 30.31 in 9.0 mi WSW 20.7 mph 28.8 mph 0.00 in Snow Light Snow
1:51 PM 19.0 °F 2.7 °F 9.0 °F 65% 30.34 in 8.0 mi WSW 20.7 mph 29.9 mph 0.00 in Snow Light Snow
2:51 PM 19.0 °F 4.5 °F 8.1 °F 62% 30.32 in 9.0 mi WSW 16.1 mph - 0.00 in   Mostly Cloudy
3:51 PM 19.0 °F 5.0 °F 7.0 °F 59% 30.33 in 10.0 mi SW 15.0 mph - N/A   Mostly Cloudy
4:51 PM 19.0 °F 7.5 °F 8.1 °F 62% 30.33 in 10.0 mi SW 10.4 mph - N/A   Mostly Cloudy
5:51 PM 19.0 °F 9.0 °F 9.0 °F 65% 30.33 in 10.0 mi SW 8.1 mph - N/A   Overcast
6:51 PM 19.9 °F 11.1 °F 10.0 °F 65% 30.34 in 10.0 mi SW 6.9 mph - N/A   Overcast
7:51 PM 19.9 °F 10.1 °F 10.9 °F 68% 30.34 in 10.0 mi SW 8.1 mph - N/A   Overcast
8:51 PM 19.9 °F 10.1 °F 12.0 °F 71% 30.35 in 3.0 mi SW 8.1 mph - 0.00 in Snow Light Snow
8:56 PM 19.9 °F 12.1 °F 12.9 °F 74% 30.31 in 2.5 mi WSW 5.8 mph - 0.00 in Snow Light Snow
9:01 PM 19.9 °F 10.1 °F 12.9 °F 74% 30.31 in 2.0 mi WSW 8.1 mph - 0.00 in Snow Light Snow
9:51 PM 19.9 °F 11.1 °F 14.0 °F 78% 30.35 in 2.0 mi West 6.9 mph - 0.01 in Snow Light Snow
10:05 PM 19.9 °F 10.1 °F 14.0 °F 78% 30.31 in 3.0 mi West 8.1 mph - 0.00 in Snow Light Snow
10:32 PM 19.9 °F 9.3 °F 14.0 °F 78% 30.31 in 2.5 mi WSW 9.2 mph - 0.01 in Snow Light Snow
10:51 PM 19.9 °F 9.3 °F 14.0 °F 78% 30.36 in 2.0 mi West 9.2 mph - 0.01 in Snow Light Snow
11:15 PM 19.9 °F 10.1 °F 14.0 °F 78% 30.32 in 1.8 mi WSW 8.1 mph - 0.01 in Snow Light Snow
11:29 PM 19.9 °F 11.1 °F 15.1 °F 81% 30.32 in 2.0 mi WSW 6.9 mph - 0.01 in Snow Light Snow
11:47 PM 19.4 °F 11.5 °F 15.8 °F 86% 30.33 in 1.5 mi WSW 5.8 mph - 0.01 in Snow Light Snow
11:51 PM 19.9 °F 11.1 °F 15.1 °F 81% 30.37 in 1.2 mi WSW 6.9 mph - 0.02 in Snow Light Snow